แทงหวย24 หวย 3 ตัวจ่ายบาทละ 1,000 หวย 2 ตัวจ่ายบาทละ 100 สมัครฟรี มีทุกหวย สุดยอดเว็บหวยออนไลน์ สมั

EmersonAllison2417 | 2022.03.30 15:16 | 조회 2
แทงหวย24 หวย 3 ตัวจ่ แท่งหวย24 หวย 2 ตัวจ่ายบาทละ 100 สมัครฟรี มีทุกหวย สุดยอดเว็บหวยออนไลน์ สมัคร tanghuay24 ตอนนี้รับไปเลยโปรโมชั่นสมาชิกใหม่ เว็บพนันออนไลน์ หวยไทย หวยลาว หวยฮานอย
twitter facebook me2day 요즘
1,427,870개(14043/71394페이지)
LECTURE
번호 제목 글쓴이 조회 날짜
1147030 Choose to gain from ratuslot138 online g JacobsLohmann0912 4 2022.03.30 16:12
1147029 How To Gain Adult Toys For Women GoldbergMoon7688 2 2022.03.30 16:12
1147028 BRD4 inhibition by simply Dasatinib stop HolmanObrien6111 3 2022.03.30 16:12
1147027 Wystawianie Rachunków Online - InFakt WormPhelps5811 4 2022.03.30 16:12
1147026 Ten Day Plan For Online Sales NelsonArmstrong2287 4 2022.03.30 16:12
1147025 Amateurs Electrician In Dunstable But Ov SheehanFernandez9988 4 2022.03.30 16:12
1147024 Food Gift Hampers 사진 MoserHeath5740 3 2022.03.30 16:12
1147023 Eicr Certificate Dunstable Like A Maniac SniderLangley3422 3 2022.03.30 16:12
1147022 Как Выбрать Стратегию И Продвигать Интер BilleKolding4732 3 2022.03.30 16:12
1147021 Advice To Help You Enhance Your Internet DamMcCurdy5403 5 2022.03.30 16:12
1147020 J'ai découvert coton démaquillant lavab SkovgaardChilders0276 3 2022.03.30 16:12
1147019 Mon avis sur consultez cette page WoodardGibbons6755 4 2022.03.30 16:12
1147018 เคล็ดลับฟุตบอลที่ยอดเยี่ยมจริงๆ ที่ทุกคน 사진 FyhnUpchurch4123 7 2022.03.30 16:11
1147017 J'ai découvert savon solide SalinasStaal6071 4 2022.03.30 16:11
1147016 Playing เกมใหม่ได้เงินไวNow? Win Big By MaurerLyhne4042 3 2022.03.30 16:11
1147015 Feature Berjudi Bolak-balik Tabungan Get 사진 JokumsenHammer8355 4 2022.03.30 16:11
1147014 Expliquer simplement l'avenir vert TempletonIsaksen1567 4 2022.03.30 16:11
1147013 Healthy And Balanced Present Hampers 사진 BurkeMcLain8181 2 2022.03.30 16:11
1147012 J'ai découvert Suivez ce lien ThorhaugeJantzen3664 3 2022.03.30 16:11
1147011 Discover Making Money On-line In This Ar FloodFletcher1715 5 2022.03.30 16:11